Location: Briis
(48.6240°N, 2.1211°E)
Time: 10:42:20
(UTC+00:00)

ATLAS 5 CENTAUR R/B - Pass Details

Date: 25 September 2020
Orbit: 527 x 1131 km, 63.4° (Epoch: 22 October)

Event Time Altitude Azimuth Distance (km) Brightness Sun altitude
Exits shadow 03:39:06 - 319° (NW) 2,293 4.3 -20.7°
Reaches altitude 10° 03:39:49 10° 326° (NNW) 2,141 4.2 -20.6°
Maximum altitude 03:42:44 15° 3° (N) 1,899 4.3 -20.2°
Drops below altitude 10° 03:45:53 10° 39° (NE) 2,372 5.4 -19.7°
Sets 03:49:37 0° 61° (ENE) 3,450 7.0 -19.1°
